Temp
45 45 44 43 43 43 42 41 41 41 40 40 39 38 38 38 36 36 35 34 34 33 33 32 32 31 32 31 31 31 31 31 30 29 29 29 28 28 28 27 27 27
44 44 43 43 42 42 42 42 41 41 40 40 40 39 38 37 36 36 35 34 33 33 32 32 31 31 31 31 30 31 30 29 29 29 29 28 28 28 27 27 27 26
44 43 43 43 43 42 42 41 41 41 40 40 39 38 37 36 35 35 35 34 33 33 32 31 31 31 31 31 30 31 30 29 29 28 29 28 27 27 27 26 26 26
44 44 43 43 44 42 42 40 40 40 39 37 38 38 37 36 35 34 34 34 33 32 31 31 31 31 30 30 30 30 29 29 29 28 28 27 27 27 26 26 26 25
43 43 43 43 43 42 41 40 39 39 38 39 37 36 35 35 34 34 34 33 33 32 31 31 30 30 30 30 30 29 28 28 27 27 27 26 26 26 26 26 25 25
42 43 43 43 42 41 40 40 40 39 38 37 37 36 35 35 34 34 33 33 32 32 31 30 30 30 30 29 29 29 28 27 26 27 27 26 25 26 26 26 25 24
42 42 42 42 41 40 40 40 39 39 38 38 36 35 35 34 34 34 33 33 32 32 31 31 30 30 29 29 29 28 27 27 26 26 26 25 25 25 25 25 25 24
42 42 41 40 40 39 39 39 39 38 38 36 36 36 35 34 34 34 33 33 32 32 31 31 31 30 29 29 29 28 26 26 25 25 25 24 24 23 24 24 24 23
42 41 41 40 40 40 39 40 39 38 37 36 36 35 35 35 34 34 33 33 32 32 31 31 31 30 29 29 29 28 27 26 26 25 25 23 23 23 23 23 22 22
40 41 39 39 39 40 39 40 39 38 36 36 36 35 34 34 34 34 33 32 32 31 31 31 30 30 29 29 29 28 27 26 25 25 25 24 24 23 22 22 22 21
40 40 39 39 39 40 40 40 39 38 36 36 36 35 34 34 33 33 33 32 32 31 31 30 30 29 28 28 28 28 28 27 26 25 24 24 23 23 23 22 22 21
40 39 39 39 39 40 40 39 39 37 35 36 36 35 34 34 33 33 33 32 32 32 31 31 30 29 28 28 27 27 26 26 25 24 24 23 22 22 22 22 21 20
40 40 40 40 40 40 40 39 37 36 35 35 35 34 33 32 33 32 32 32 32 32 31 31 30 29 28 28 27 26 25 24 24 23 23 22 21 21 21 21 20 20
41 41 41 41 40 39 38 37 36 35 34 34 33 33 33 33 32 32 32 32 32 31 31 30 29 28 28 27 26 25 24 24 23 22 21 21 20 20 20 20 20 19
42 41 40 39 38 37 36 35 35 35 34 33 33 33 33 32 32 32 30 30 30 30 29 29 29 28 28 27 25 24 24 23 22 21 21 20 19 19 19 19 18 18
41 40 39 37 36 36 36 35 34 33 32 32 31 32 32 31 31 31 30 30 29 29 28 28 28 28 29 30 29 25 24 23 21 20 20 20 19 18 18 18 18 18
39 38 38 36 36 36 34 33 33 31 31 30 30 29 29 30 30 30 30 30 30 29 27 27 27 27 30 32 31 30 25 22 21 20 20 19 18 18 17 17 17 18
38 37 36 36 35 34 33 32 32 30 30 29 29 28 29 29 30 30 30 30 29 28 27 27 27 29 32 32 32 31 28 22 21 19 19 19 18 18 18 17 17 17
36 35 34 33 33 33 32 31 30 30 29 28 28 29 29 28 30 29 29 29 29 28 27 27 27 30 32 33 33 32 30 25 20 19 19 18 18 18 18 18 18 18
34 33 33 33 32 31 31 30 30 29 29 29 29 28 28 28 28 28 28 28 28 27 27 27 26 30 33 33 33 33 31 26 19 19 19 19 19 19 19 19 19 18
33 33 32 31 30 30 30 29 29 29 28 28 28 28 27 27 27 27 27 26 26 27 26 26 26 31 33 34 34 33 32 26 19 19 18 18 20 20 20 19 19 20
30 30 30 28 29 29 29 29 29 29 28 28 28 28 27 27 27 27 26 25 26 25 25 24 25 31 33 34 34 34 32 22 19 18 18 18 18 19 20 20 20 20
31 31 29 28 28 28 28 28 28 28 28 28 27 27 26 26 26 26 26 25 25 24 24 23 23 29 33 34 34 35 30 19 18 18 17 17 18 19 20 20 21 21
31 29 29 29 28 28 28 29 29 28 28 27 26 26 25 26 26 25 25 24 24 23 24 23 22 28 33 34 34 35 27 19 18 18 17 17 18 19 20 20 21 24
30 30 30 29 28 29 28 28 28 28 28 26 27 26 26 26 24 24 23 23 23 23 25 24 21 26 32 34 34 34 25 20 19 19 18 18 19 19 20 19 20 23
28 30 30 29 29 28 27 28 27 26 25 25 25 26 25 24 23 23 22 21 21 21 22 23 21 22 29 34 34 34 28 22 21 20 18 18 19 18 17 18 19 21
MSLP
1008.91 1009.19 1009.51 1009.99 1010.27 1010.47 1010.91 1011.35 1011.67 1011.91 1012.23 1012.63 1012.91 1013.19 1013.67 1014.19 1014.99 1015.35 1015.75 1016.31 1016.67 1017.07 1017.43 1017.75 1018.03 1018.27 1018.47 1018.67 1018.91 1019.23 1019.51 1019.67 1019.91 1020.19 1020.39 1020.63 1020.91 1021.19 1021.51 1021.83 1022.23 1022.43
1008.35 1008.71 1009.15 1009.55 1009.95 1010.27 1010.47 1010.75 1011.07 1011.35 1011.67 1012.03 1012.31 1012.91 1013.51 1014.11 1014.51 1014.99 1015.43 1015.87 1016.35 1016.67 1017.11 1017.47 1017.75 1017.95 1018.19 1018.43 1018.67 1018.91 1019.31 1019.59 1019.79 1020.15 1020.23 1020.47 1020.79 1021.11 1021.39 1021.71 1021.95 1022.27
1008.11 1008.35 1008.51 1008.71 1008.91 1009.35 1009.83 1010.35 1010.79 1011.07 1011.31 1011.55 1012.15 1012.63 1013.07 1013.59 1014.19 1014.67 1015.15 1015.51 1015.95 1016.39 1016.79 1017.15 1017.47 1017.71 1017.95 1018.19 1018.43 1018.63 1018.95 1019.31 1019.55 1019.99 1020.15 1020.39 1020.79 1021.03 1021.35 1021.67 1021.95 1022.03
1007.43 1007.55 1007.75 1007.95 1008.31 1008.67 1009.23 1009.83 1010.23 1010.63 1011.03 1011.47 1011.55 1011.95 1012.59 1013.19 1013.75 1014.31 1014.79 1015.27 1015.67 1016.07 1016.51 1016.87 1017.11 1017.43 1017.71 1017.99 1018.27 1018.51 1018.71 1019.03 1019.31 1019.79 1020.07 1020.51 1020.83 1021.03 1021.35 1021.59 1021.79 1021.95
1006.87 1007.15 1007.31 1007.39 1007.67 1008.15 1008.71 1009.11 1009.43 1009.83 1010.23 1010.51 1011.27 1011.83 1012.27 1012.83 1013.39 1013.91 1014.43 1014.91 1015.35 1015.83 1016.27 1016.59 1016.91 1017.15 1017.47 1017.79 1018.07 1018.35 1018.67 1018.95 1019.27 1019.59 1019.83 1020.27 1020.67 1020.91 1021.23 1021.43 1021.59 1021.71
1006.83 1006.91 1007.03 1007.31 1007.51 1007.83 1008.23 1008.31 1008.63 1009.23 1009.71 1010.31 1010.55 1011.19 1011.79 1012.35 1012.83 1013.31 1013.83 1014.39 1014.95 1015.43 1015.91 1016.31 1016.59 1016.91 1017.19 1017.51 1017.91 1018.11 1018.39 1018.71 1019.07 1019.31 1019.59 1019.95 1020.43 1020.75 1021.03 1021.23 1021.39 1021.51
1005.99 1006.51 1006.83 1007.23 1007.71 1007.87 1007.99 1008.23 1008.63 1008.99 1009.35 1009.59 1010.39 1010.83 1011.23 1011.83 1012.31 1012.75 1013.31 1013.83 1014.43 1014.95 1015.39 1015.71 1016.07 1016.51 1016.87 1017.23 1017.55 1017.87 1018.23 1018.43 1018.87 1019.11 1019.35 1019.79 1020.19 1020.55 1020.79 1021.03 1021.19 1021.31
1005.51 1005.87 1006.51 1007.23 1007.59 1007.79 1007.87 1008.03 1008.31 1008.59 1008.91 1009.59 1009.79 1010.15 1010.67 1011.15 1011.63 1012.23 1012.79 1013.35 1013.95 1014.51 1015.03 1015.39 1015.67 1015.95 1016.35 1016.71 1017.03 1017.51 1017.95 1018.27 1018.59 1018.87 1019.15 1019.59 1019.91 1020.15 1020.43 1020.71 1020.99 1021.19
1005.19 1005.67 1005.99 1006.39 1006.79 1007.15 1007.31 1007.31 1007.55 1008.03 1008.67 1009.07 1009.43 1009.91 1010.31 1010.63 1011.11 1011.67 1012.27 1012.87 1013.47 1013.99 1014.51 1014.99 1015.27 1015.63 1015.99 1016.23 1016.55 1016.87 1017.31 1017.83 1018.19 1018.47 1018.75 1019.15 1019.43 1019.63 1019.95 1020.39 1020.79 1021.07
1005.19 1005.19 1005.75 1006.07 1006.39 1006.39 1006.59 1006.67 1006.99 1007.47 1008.03 1008.55 1009.11 1009.67 1010.07 1010.39 1010.79 1011.27 1011.87 1012.39 1012.87 1013.43 1013.91 1014.31 1014.87 1015.23 1015.63 1015.87 1016.07 1016.39 1016.79 1017.27 1017.75 1018.15 1018.43 1018.67 1018.83 1019.19 1019.59 1019.99 1020.27 1020.79
1004.67 1004.95 1005.15 1005.39 1005.63 1005.91 1006.11 1006.43 1006.75 1007.07 1007.55 1007.95 1008.63 1009.15 1009.59 1010.07 1010.55 1010.99 1011.43 1011.87 1012.15 1012.51 1013.11 1013.71 1014.19 1014.67 1015.19 1015.67 1015.99 1016.19 1016.43 1016.83 1017.27 1017.67 1018.07 1018.39 1018.59 1018.87 1019.19 1019.51 1019.95 1020.23
1004.15 1004.47 1004.51 1004.63 1004.79 1005.03 1005.47 1006.11 1006.55 1006.95 1007.31 1007.67 1008.03 1008.59 1009.23 1009.59 1009.95 1010.47 1010.67 1011.07 1011.51 1011.95 1012.39 1012.87 1013.51 1014.03 1014.51 1014.99 1015.43 1015.87 1016.23 1016.59 1016.95 1017.31 1017.75 1018.19 1018.55 1018.83 1019.07 1019.35 1019.67 1020.07
1003.83 1003.63 1003.59 1003.75 1003.91 1004.23 1004.87 1005.67 1006.19 1006.63 1006.99 1007.27 1007.63 1008.11 1008.71 1009.23 1009.59 1009.95 1010.35 1010.67 1011.03 1011.59 1011.99 1012.39 1012.95 1013.59 1014.19 1014.63 1015.07 1015.47 1015.79 1016.15 1016.63 1017.15 1017.63 1018.07 1018.39 1018.71 1019.03 1019.39 1019.67 1019.95
1003.03 1003.07 1002.95 1002.87 1003.35 1004.07 1004.59 1005.03 1005.59 1006.15 1006.47 1006.79 1007.31 1007.75 1008.15 1008.55 1008.99 1009.39 1009.87 1010.47 1010.83 1011.27 1011.79 1012.39 1012.87 1013.35 1013.87 1014.39 1014.79 1015.15 1015.55 1015.91 1016.27 1016.79 1017.35 1017.87 1018.23 1018.59 1018.95 1019.35 1019.67 1019.91
1002.19 1002.51 1002.79 1003.11 1003.47 1003.79 1004.15 1004.55 1004.95 1005.39 1006.03 1006.47 1006.75 1007.07 1007.59 1008.07 1008.63 1009.23 1009.83 1010.35 1010.75 1011.15 1011.63 1012.11 1012.55 1012.95 1013.31 1013.79 1014.43 1015.07 1015.43 1015.75 1016.15 1016.55 1017.03 1017.55 1018.03 1018.47 1018.91 1019.35 1019.67 1019.87
1001.59 1001.91 1002.27 1002.71 1003.19 1003.39 1003.51 1003.87 1004.47 1005.11 1005.63 1005.95 1006.27 1006.59 1007.11 1007.71 1008.31 1008.83 1009.27 1009.67 1010.19 1010.75 1011.15 1011.55 1011.95 1012.31 1012.71 1013.15 1013.59 1014.15 1014.83 1015.47 1016.03 1016.39 1016.75 1017.19 1017.71 1018.27 1018.87 1019.27 1019.55 1019.71
1001.47 1001.63 1001.91 1002.11 1002.11 1002.67 1003.19 1003.59 1003.91 1004.43 1004.99 1005.47 1005.91 1006.27 1006.67 1007.23 1007.79 1008.31 1008.67 1009.11 1009.47 1009.87 1010.43 1010.91 1011.35 1011.79 1012.19 1012.55 1012.99 1013.63 1014.27 1014.83 1015.31 1015.87 1016.35 1016.87 1017.35 1017.83 1018.39 1018.91 1019.27 1019.47
1001.11 1001.23 1001.47 1001.43 1001.79 1002.07 1002.43 1002.91 1003.43 1004.07 1004.51 1004.91 1005.43 1005.91 1006.31 1006.79 1007.19 1007.47 1008.03 1008.51 1009.07 1009.55 1009.95 1010.35 1010.83 1011.31 1011.67 1011.99 1012.39 1012.91 1013.63 1014.31 1014.87 1015.39 1015.95 1016.43 1016.95 1017.43 1017.99 1018.43 1018.79 1019.07
1000.83 1001.15 1001.15 1001.27 1001.39 1001.59 1002.23 1002.87 1003.27 1003.67 1004.11 1004.51 1004.71 1004.95 1005.83 1006.35 1006.51 1007.11 1007.51 1007.95 1008.43 1008.91 1009.43 1009.95 1010.47 1010.87 1011.19 1011.51 1011.91 1012.35 1012.99 1013.83 1014.51 1015.03 1015.47 1015.99 1016.47 1016.99 1017.43 1017.87 1018.31 1018.63
1000.35 1000.71 1000.99 1001.11 1001.35 1001.79 1002.19 1002.59 1002.95 1003.15 1003.47 1003.99 1004.59 1005.19 1005.39 1005.79 1006.31 1006.63 1007.07 1007.47 1007.75 1008.23 1008.79 1009.39 1009.95 1010.31 1010.55 1010.87 1011.31 1011.83 1012.47 1013.35 1014.19 1014.67 1015.15 1015.59 1015.99 1016.43 1016.87 1017.31 1017.71 1017.99
1000.55 1000.59 1000.67 1001.11 1001.59 1001.79 1002.11 1002.47 1002.75 1003.19 1003.59 1003.83 1004.19 1004.47 1004.83 1005.15 1005.55 1006.19 1006.55 1007.03 1007.59 1008.03 1008.51 1009.03 1009.59 1009.95 1010.15 1010.51 1010.95 1011.43 1012.07 1013.03 1013.95 1014.47 1014.99 1015.43 1015.83 1016.19 1016.51 1016.91 1017.31 1017.59
1001.11 1001.03 1001.19 1001.51 1001.91 1002.11 1002.19 1002.31 1002.71 1002.95 1003.19 1003.63 1004.03 1004.47 1004.95 1005.35 1005.79 1006.07 1006.47 1006.87 1007.23 1007.63 1008.11 1008.67 1009.27 1009.51 1009.63 1009.95 1010.47 1010.99 1011.71 1012.87 1013.67 1014.11 1014.63 1015.15 1015.63 1015.99 1016.39 1016.75 1016.99 1017.19
1001.19 1001.11 1001.15 1001.39 1001.75 1002.11 1002.23 1002.27 1002.51 1002.83 1003.15 1003.43 1003.83 1004.11 1004.51 1004.91 1005.15 1005.51 1005.95 1006.47 1006.95 1007.39 1007.79 1008.31 1009.03 1009.15 1009.35 1009.67 1010.15 1010.71 1011.51 1012.83 1013.35 1013.87 1014.39 1014.83 1015.27 1015.67 1016.11 1016.47 1016.71 1016.87
1001.35 1001.19 1001.15 1001.27 1001.55 1001.75 1002.03 1002.39 1002.63 1002.79 1002.87 1003.03 1003.19 1003.55 1003.99 1004.35 1004.87 1005.47 1005.91 1006.23 1006.63 1007.03 1007.39 1008.07 1008.75 1008.87 1008.83 1009.23 1009.67 1010.23 1011.39 1012.55 1013.11 1013.55 1014.07 1014.43 1014.91 1015.35 1015.75 1016.15 1016.43 1016.63
1001.63 1001.39 1001.19 1001.27 1001.43 1001.51 1001.79 1002.11 1002.39 1002.67 1002.91 1003.19 1003.27 1003.43 1003.79 1004.31 1004.87 1005.27 1005.75 1006.11 1006.43 1006.83 1007.39 1007.75 1008.35 1008.63 1008.55 1008.67 1009.15 1009.59 1010.87 1011.83 1012.47 1012.91 1013.39 1013.87 1014.27 1014.79 1015.27 1015.75 1016.15 1016.39
1001.71 1001.55 1001.35 1001.23 1001.31 1001.59 1001.83 1001.99 1002.31 1002.71 1003.07 1003.31 1003.43 1003.47 1003.75 1004.15 1004.67 1005.03 1005.43 1005.95 1006.59 1007.11 1007.47 1007.79 1008.39 1008.63 1008.43 1008.31 1008.67 1009.11 1010.11 1010.91 1011.63 1012.11 1012.59 1013.15 1013.59 1014.03 1014.71 1015.27 1015.67 1015.91
Wind_Speed
12 11 12 11 11 10 11 12 11 12 12 11 12 12 13 11 10 13 12 10 11 10 10 10 9 9 8 8 8 7 7 7 6 6 8 8 7 8 8 8 7 6
15 13 10 10 9 9 10 12 13 13 13 12 11 9 9 10 11 12 12 12 11 11 10 10 9 9 9 9 9 9 8 7 8 5 8 8 7 7 7 8 7 6
13 13 14 15 14 14 13 10 10 11 11 11 9 9 10 10 11 12 11 12 11 11 11 10 10 9 9 9 9 9 9 9 9 7 7 8 7 7 6 7 6 7
16 16 16 16 14 14 13 11 11 10 9 9 13 11 10 9 11 12 12 12 11 11 10 10 11 9 9 9 9 8 8 8 6 7 7 5 6 6 6 6 6 6
16 15 14 14 13 12 11 13 14 13 13 12 8 10 11 11 12 12 12 12 11 11 10 11 10 10 9 9 9 8 8 8 7 8 8 7 6 7 6 7 7 7
12 14 14 14 13 12 12 15 14 13 13 11 13 10 11 12 12 13 13 13 12 11 11 11 11 10 10 10 9 9 9 9 8 9 9 9 8 6 6 7 8 8
16 14 15 12 10 12 13 12 11 11 12 12 9 12 12 13 13 14 14 14 13 13 13 13 13 12 10 10 10 10 9 9 9 9 10 8 8 8 6 7 7 7
15 13 12 10 11 11 12 12 12 12 12 10 13 12 13 14 14 13 13 14 13 13 13 12 12 13 12 11 12 11 10 8 9 10 10 9 9 9 8 7 7 8
13 11 12 14 15 13 14 14 13 12 11 13 13 12 12 13 14 14 14 14 13 13 13 13 13 12 12 12 12 13 13 11 10 11 11 12 11 11 10 8 8 8
12 12 12 13 14 15 16 16 13 12 11 13 12 11 13 12 12 14 13 14 14 14 14 14 13 12 12 12 13 13 13 13 12 11 11 11 11 11 10 10 10 9
14 13 14 15 16 14 16 14 13 12 11 13 12 13 13 12 12 12 14 15 16 16 16 15 14 14 13 12 11 11 12 12 12 12 11 11 10 10 9 10 10 10
15 13 15 17 17 16 16 14 12 11 11 11 13 13 12 13 14 13 14 16 15 15 16 15 15 14 14 14 13 12 11 11 11 11 10 10 9 8 9 9 9 9
15 16 17 17 17 16 13 11 12 12 12 13 12 13 13 13 13 14 13 15 15 14 15 15 15 14 13 13 13 12 12 12 11 10 9 8 8 8 8 8 8 8
15 16 16 17 14 11 11 12 12 12 13 12 11 13 14 15 15 15 13 12 13 13 13 12 13 13 13 13 12 12 12 12 11 11 10 8 8 8 8 7 7 7
14 13 12 11 11 12 12 13 14 14 12 12 13 13 12 13 13 13 13 13 11 12 12 12 13 13 12 13 13 12 11 11 11 11 11 10 9 8 7 7 6 6
14 12 11 11 11 13 14 14 13 12 13 13 13 13 12 12 12 13 14 14 14 13 13 12 12 11 13 20 17 14 13 11 10 10 11 10 10 9 8 7 7 6
11 12 11 13 15 13 11 12 14 13 13 13 12 12 13 13 13 15 14 14 15 15 15 13 12 10 20 22 23 21 14 12 13 12 11 11 10 11 11 9 7 7
12 11 12 14 12 14 14 13 12 12 13 14 13 13 13 12 15 16 15 14 13 13 14 13 12 15 24 24 24 24 19 13 11 11 11 11 10 10 9 9 9 8
9 10 12 12 13 13 11 11 13 13 13 14 16 15 12 14 16 15 15 14 14 15 14 13 12 19 24 26 25 25 25 17 10 11 12 11 11 11 10 10 9 9
10 11 12 12 10 9 10 12 13 15 13 11 10 11 14 14 13 15 14 15 15 15 14 13 13 20 26 26 26 26 25 18 11 12 11 11 10 11 10 11 11 10
8 9 10 8 8 9 10 11 13 11 12 12 12 14 14 15 15 15 14 13 13 12 12 12 11 21 25 26 25 27 26 17 11 10 9 9 10 10 10 10 10 9
5 6 6 5 6 8 10 12 12 13 13 11 11 10 9 8 9 10 13 14 13 13 13 13 11 24 25 27 28 26 27 13 11 11 11 10 9 10 9 9 9 9
5 6 7 7 8 10 12 12 12 12 11 9 11 11 12 12 12 12 11 12 13 13 13 12 11 20 25 25 27 29 21 10 11 10 10 10 10 10 9 9 8 8
6 6 8 8 9 12 12 10 9 8 10 10 13 13 13 13 11 10 10 11 13 14 13 13 12 18 27 28 28 29 18 13 11 11 10 10 10 9 8 8 9 15
6 6 7 8 10 10 9 11 11 11 8 8 9 9 10 9 10 10 10 10 11 13 15 15 12 16 26 27 29 30 19 13 12 11 12 11 11 10 8 7 7 12
6 7 7 8 9 8 7 8 6 7 8 9 8 8 9 9 9 9 11 9 9 10 11 12 12 12 18 29 30 30 25 15 12 12 13 13 11 11 10 9 9 8
Wind_Direction
196 195 195 192 198 197 189 190 192 193 196 192 195 197 193 190 172 185 186 181 186 184 183 181 179 178 176 174 173 167 174 176 169 166 167 161 163 162 164 162 162 158
199 194 194 194 197 198 198 195 194 194 195 196 199 186 185 175 186 180 183 184 182 187 180 180 181 179 176 175 173 170 171 173 175 171 165 168 165 161 162 163 159 153
197 197 197 197 199 199 198 193 192 198 196 197 185 182 182 179 176 182 184 183 183 182 181 180 179 182 178 176 174 174 174 173 176 171 165 170 159 165 164 158 154 160
202 201 199 202 199 197 191 186 194 195 192 183 194 186 173 175 174 179 183 182 183 182 180 178 182 178 178 176 173 178 176 178 167 157 157 152 164 159 162 156 155 153
203 204 206 206 203 193 186 192 194 194 193 194 172 172 175 172 176 178 180 183 182 180 178 180 179 180 175 175 176 174 174 172 163 164 163 165 166 161 165 159 161 161
211 210 210 207 202 194 194 199 198 191 190 183 188 173 176 174 176 180 180 180 183 180 179 179 180 180 177 175 176 181 173 171 171 167 166 167 166 166 163 167 164 165
208 207 212 209 204 203 202 202 196 193 193 191 162 181 175 178 180 182 180 181 180 182 182 182 180 179 180 175 179 178 178 173 166 170 167 167 162 167 169 169 172 168
209 206 205 200 207 207 207 201 199 196 191 174 185 184 176 180 181 179 180 179 180 184 185 185 185 182 179 178 180 178 177 172 172 172 170 169 167 172 173 173 170 165
208 206 200 200 203 205 207 204 201 194 182 186 187 182 183 181 181 179 178 178 180 183 184 185 186 184 183 182 183 180 177 177 177 176 176 173 178 180 175 166 166 168
212 207 198 205 207 209 209 207 199 191 183 187 185 178 183 185 180 178 176 179 182 183 185 186 184 186 185 187 185 180 178 178 176 180 181 183 181 175 172 172 171 164
215 204 204 204 208 210 214 206 200 191 185 186 181 185 184 178 181 177 178 181 186 185 184 185 186 184 183 185 187 185 181 177 178 179 183 185 183 178 173 171 173 177
215 206 208 207 209 210 209 203 201 192 187 188 185 184 181 184 179 181 185 187 187 186 184 184 183 184 184 184 183 180 180 180 179 179 180 179 177 176 175 176 177 174
216 211 208 210 210 208 201 195 194 191 186 189 186 184 180 182 186 184 188 187 189 184 186 184 182 181 183 183 182 181 180 177 175 176 174 173 175 174 173 176 178 176
216 217 214 212 207 200 196 194 189 187 191 187 177 183 186 186 184 187 187 186 186 186 186 180 180 181 183 183 183 180 178 178 174 171 169 168 167 170 172 177 178 177
218 216 217 211 200 196 195 192 191 191 185 182 185 187 185 186 183 180 177 185 184 183 180 181 182 186 184 181 178 179 178 176 173 169 168 168 167 168 168 169 174 176
217 213 207 198 196 200 198 193 189 185 184 187 188 185 181 178 178 181 183 183 180 183 183 183 187 186 184 182 179 175 172 171 167 170 170 170 166 165 168 174 175 170
218 212 200 200 203 198 196 189 188 185 185 185 183 182 181 178 177 181 185 184 185 183 182 186 187 184 181 182 180 176 171 169 170 172 171 167 169 169 173 172 171 170
217 212 203 208 197 199 194 192 183 180 184 184 180 180 182 177 182 186 184 185 184 184 186 186 186 182 182 183 180 177 173 171 170 169 167 169 170 171 169 169 170 169
215 210 213 207 204 199 188 182 183 185 184 182 187 184 170 180 189 181 188 183 182 184 187 185 185 183 184 183 181 179 176 169 170 166 168 170 170 171 170 169 169 170
209 207 211 213 201 188 183 185 186 191 189 184 174 170 182 184 183 186 184 185 186 185 184 184 183 185 185 184 182 179 174 167 167 166 168 171 164 169 171 170 173 172
220 213 215 204 192 188 184 190 192 188 181 183 181 184 184 185 185 186 188 184 183 182 182 184 184 185 187 185 182 180 176 161 163 162 162 166 168 170 170 171 172 175
226 222 212 196 189 189 191 193 192 190 186 181 179 183 184 178 185 184 182 184 183 180 181 184 179 186 188 186 184 181 176 160 163 164 164 165 166 169 171 174 176 176
225 212 201 192 189 193 200 198 191 191 186 176 177 181 180 185 187 186 185 182 181 182 181 180 176 189 189 186 186 185 173 150 162 160 162 163 168 169 171 174 181 180
231 211 207 198 194 201 201 202 197 193 188 180 182 180 184 187 179 179 183 182 181 184 182 175 180 188 188 189 185 186 165 157 162 164 163 166 164 168 169 175 181 183
240 226 216 206 207 207 196 194 192 191 187 182 187 181 182 173 176 179 179 181 186 182 181 182 180 186 189 188 185 185 162 162 163 167 165 168 167 166 166 165 174 189
240 231 224 213 208 200 195 196 181 175 180 182 186 182 178 175 178 180 178 181 173 178 185 181 177 188 193 192 190 184 164 164 167 167 172 167 167 166 160 170 173 180